[[{"header":{"parameterUnit":"m.s-1","parameterCategory":1,"la1":30.2991,"la2":30.254,"lo1":-89.0895,"lo2":-89.0444,"dy":0.0017,"dx":0.0017,"nx":28,"ny":28,"refTime":"2023-09-02T21:00:00:Z","depth":0,"parameterNumber":2,"parameterNumberName":"U-component_of_WINDS"},"data":[0,0,0,0,0,0,0,0,0,0,0,0,0,0,0,0,0,0,0,0,0,0,0,0,0,0,0,0,0,0,0,0,0,0,0,0,0,0,0,0,0,0,0,0,0,0,0,0,0,0,0,0,0,0,0,0,0,0,-2.1487,-2.1486,0,-2.1327,-2.1325,-2.1323,-2.1185,-2.1183,-2.1182,-2.118,-2.101,-2.1007,-2.1004,0,0,0,0,0,0,0,0,0,0,0,0,0,-2.167,-2.1667,-2.1487,-2.1485,-2.1483,-2.1327,-2.1325,-2.1323,-2.1185,-2.1183,-2.1181,-2.118,-2.1011,-2.1007,-2.1004,0,0,0,0,0,0,0,0,0,0,0,0,0,-2.1558,-2.1667,-2.1488,-2.1396,-2.1386,-2.1328,-2.1325,-2.1322,-2.1185,-2.1183,-2.1181,-2.1179,-2.1012,-2.1008,-2.1003,-2.102,0,0,-2.0989,-2.0987,0,0,0,0,0,0,0,0,-2.1565,-2.1552,-2.1412,-2.1402,-2.1391,-2.1274,-2.1327,-2.1221,-2.1186,-2.1262,-2.118,-2.1178,-2.1099,-2.1087,-2.1062,-2.1013,-2.1005,-2.0988,-2.0986,-2.0984,-2.0982,0,0,0,0,0,0,0,-2.1573,-2.1558,-2.1424,-2.141,-2.1397,-2.1361,-2.1343,-2.1306,-2.1195,-2.1255,-2.1244,-2.1228,-2.1093,-2.1067,-2.1057,-2.1003,-2.0989,-2.0984,-2.0982,-2.098,-2.0959,-2.0961,0,0,0,0,0,0,-2.1595,-2.1565,-2.1429,-2.1419,-2.1474,-2.136,-2.1339,-2.1314,-2.1195,-2.1175,-2.123,-2.1222,-2.1076,-2.1063,-2.105,-2.1062,-2.0984,-2.0979,-2.0977,-2.0957,-2.096,-2.0962,0,0,0,0,0,0,-2.16,-2.1584,-2.1435,-2.1489,-2.1467,-2.1359,-2.1331,-2.1312,-2.1285,-2.1176,-2.1155,-2.1224,-2.1074,-2.1057,-2.1029,-2.1054,-2.0977,-2.0973,-2.0954,-2.0958,-2.0961,-2.1087,0,0,0,0,0,0,-2.1606,-2.1587,-2.1593,-2.149,-2.1465,-2.1419,-2.1333,-2.131,-2.1278,-2.1266,-2.1165,-2.1146,-2.107,-2.1037,-2.1025,-2.1046,-2.0969,-2.0952,-2.0956,-2.096,-2.108,-2.1094,-2.1106,0,0,0,0,0,-2.1613,-2.1634,-2.1594,-2.1579,-2.1471,-2.142,-2.1405,-2.132,-2.1281,-2.1285,-2.1216,-2.1149,-2.1055,-2.1035,-2.102,-2.1041,-2.0949,-2.0955,-2.096,-2.1074,-2.1091,-2.1106,0,0,0,0,0,0,-2.1739,-2.1618,-2.1573,-2.1562,-2.1503,-2.1397,-2.14,-2.1341,-2.129,-2.1281,-2.1175,-2.1154,-2.1137,-2.1086,-2.1068,-2.1052,-2.0993,-2.0995,-2.1085,-2.1101,-2.1114,-2.1125,-2.0965,0,0,0,0,0,-2.1767,-2.1737,-2.1632,-2.1633,-2.1606,-2.1509,-2.1483,-2.1423,-2.1356,-2.133,-2.1258,-2.1194,-2.115,-2.1123,-2.1076,-2.1073,-2.1048,-2.108,-2.1093,-2.1105,-2.1107,-2.1101,-2.1113,-2.0979,-2.0979,-2.0979,0,0,-2.1821,-2.1752,-2.1739,-2.1656,-2.1603,-2.1573,-2.1488,-2.146,-2.1436,-2.1325,-2.1294,-2.124,-2.1162,-2.1147,-2.1137,-2.1104,-2.1139,-2.1111,-2.1121,-2.1116,-2.1107,-2.112,-2.1131,-2.0982,-2.0982,-2.0981,0,0,-2.1905,-2.1851,-2.1845,-2.1794,-2.1716,-2.1652,-2.1651,-2.1555,-2.1515,-2.1484,-2.14,-2.137,-2.1296,-2.1244,-2.1208,-2.1276,-2.1212,-2.1264,-2.1331,-2.1326,-2.1337,-2.1346,-2.1368,-2.1378,-2.1267,-2.1267,-2.1267,0,-2.1982,-2.1935,-2.1848,-2.1826,-2.1792,-2.1693,-2.1685,-2.164,-2.155,-2.1528,-2.1494,-2.14,-2.1341,-2.1312,-2.1329,-2.1304,-2.1298,-2.1273,-2.1343,-2.1351,-2.1358,-2.1378,-2.1387,-2.1274,-2.1273,-2.1272,-2.1272,0,-2.2033,-2.2003,-2.2007,-2.1925,-2.1892,-2.1877,-2.1786,-2.1763,-2.1707,-2.1646,-2.1616,-2.1542,-2.1478,-2.1468,-2.1412,-2.1431,-2.1413,-2.1363,-2.1301,-2.1379,-2.1396,-2.1403,-2.1283,-2.1281,-2.1279,-2.1277,0,0,-2.2188,-2.2062,-2.2064,-2.2026,-2.1935,-2.1908,-2.1889,-2.183,-2.1811,-2.1753,-2.1733,-2.1675,-2.1628,-2.1588,-2.1525,-2.1522,-2.1579,-2.1471,-2.1468,-2.1492,-2.1594,-2.1631,-2.1641,-2.1538,-2.1539,-2.154,-2.16,0,-2.2255,-2.2217,-2.2139,-2.2124,-2.2094,-2.2002,-2.1985,-2.1926,-2.187,-2.1835,-2.1772,-2.1732,-2.1675,-2.1649,-2.1642,-2.1574,-2.1598,-2.1569,-2.1516,-2.1515,-2.1535,-2.165,-2.1688,-2.1748,-2.1606,-2.1608,-2.1608,0,-2.2327,-2.2278,-2.2261,-2.2172,-2.2157,-2.2143,-2.2083,-2.2052,-2.1983,-2.1942,-2.19,-2.1832,-2.1805,-2.1752,-2.1713,-2.1696,-2.167,-2.1633,-2.1634,-2.1622,-2.1564,-2.164,-2.1766,-2.1774,-2.1618,-2.1618,-2.1617,0,-2.244,-2.2369,-2.235,-2.232,-2.2217,-2.2209,-2.2166,-2.2095,-2.2065,-2.2012,-2.1991,-2.1936,-2.1905,-2.1863,-2.1782,-2.1751,-2.1752,-2.1692,-2.1716,-2.1718,-2.1717,-2.1717,-2.1837,-2.1706,-2.1706,-2.1706,-2.1705,0,-2.2521,-2.2513,-2.2399,-2.2387,-2.2376,-2.2287,-2.2278,-2.2226,-2.2165,-2.2139,-2.2057,-2.2035,-2.1931,-2.1896,-2.1833,-2.181,-2.1797,-2.1762,-2.1744,-2.1767,-2.1772,-2.1746,-2.1739,-2.1708,-2.1707,-2.1707,-2.1707,0,-2.2642,-2.2566,-2.2538,-2.2445,-2.2421,-2.2417,-2.2335,-2.2319,-2.226,-2.2229,-2.2217,-2.2123,-2.2078,-2.1995,-2.1926,-2.1884,-2.1873,-2.1845,-2.1897,-2.1885,-2.1913,-2.1911,-2.2018,-2.2027,-2.1894,-2.1895,-2.1897,0,-2.2697,-2.269,-2.2596,-2.2575,-2.2535,-2.2501,-2.2471,-2.2384,-2.2355,-2.2279,-2.2272,-2.2222,-2.2176,-2.2109,-2.2034,-2.1981,-2.1949,-2.1991,-2.194,-2.1964,-2.1946,-2.1947,-2.1945,-2.2001,-2.2003,-2.2004,-2.2006,0,-2.2802,-2.2766,-2.2726,-2.2674,-2.2641,-2.2595,-2.2544,-2.2531,-2.2433,-2.2405,-2.236,-2.2325,-2.2257,-2.2207,-2.2144,-2.2097,-2.2034,-2.2023,-2.2025,-2.2046,-2.2076,-2.2058,-2.1925,-2.202,-2.2018,-2.2017,-2.2016,-2.2016,-2.289,-2.2879,-2.2812,-2.2771,-2.2725,-2.2681,-2.2661,-2.2601,-2.2563,-2.2501,-2.2453,-2.2412,-2.2344,-2.2254,-2.2211,-2.2176,-2.2146,-2.215,-2.215,-2.2152,-2.216,-2.2086,-2.2165,-2.2164,-2.2164,-2.2163,-2.2163,0,-2.2988,-2.2942,-2.2905,-2.2839,-2.2807,-2.2755,-2.2697,-2.2673,-2.2638,-2.2582,-2.2541,-2.2489,-2.2441,-2.2364,-2.231,-2.2297,-2.2267,-2.2285,-2.2283,-2.2273,-2.2191,-2.2194,-2.2311,-2.2311,-2.231,-2.231,-2.231,-2.231,-2.3035,-2.3014,-2.297,-2.2926,-2.2878,-2.2839,-2.281,-2.2769,-2.2723,-2.267,-2.2631,-2.2583,-2.2517,-2.2458,-2.2412,-2.239,-2.2373,-2.24,-2.2369,-2.2293,-2.2279,-2.2266,-2.2267,-2.2398,-2.2398,-2.2453,-2.2454,-2.2454]},{"header":{"parameterUnit":"m.s-1","parameterCategory":1,"la1":30.2991,"la2":30.254,"lo1":-89.0895,"lo2":-89.0444,"dy":0.0017,"dx":0.0017,"nx":28,"ny":28,"refTime":"2023-09-02T21:00:00:Z","depth":0,"parameterNumber":3,"parameterNumberName":"V-component_of_WINDS"},"data":[0,0,0,0,0,0,0,0,0,0,0,0,0,0,0,0,0,0,0,0,0,0,0,0,0,0,0,0,0,0,0,0,0,0,0,0,0,0,0,0,0,0,0,0,0,0,0,0,0,0,0,0,0,0,0,0,0,0,-2.3151,-2.3152,0,-2.324,-2.3241,-2.3242,-2.3297,-2.3297,-2.3298,-2.3298,-2.3384,-2.3386,-2.3388,0,0,0,0,0,0,0,0,0,0,0,0,0,-2.3025,-2.3027,-2.3151,-2.3152,-2.3153,-2.3239,-2.3241,-2.3242,-2.3297,-2.3297,-2.3298,-2.3298,-2.3383,-2.3385,-2.3388,0,0,0,0,0,0,0,0,0,0,0,0,0,-2.3093,-2.3027,-2.3151,-2.3191,-2.3196,-2.3239,-2.3241,-2.3242,-2.3297,-2.3297,-2.3298,-2.3298,-2.3382,-2.3385,-2.3388,-2.3397,0,0,-2.3397,-2.3398,0,0,0,0,0,0,0,0,-2.3089,-2.3097,-2.3184,-2.3189,-2.3194,-2.3258,-2.3228,-2.3294,-2.3297,-2.3258,-2.3298,-2.3299,-2.3341,-2.3347,-2.3363,-2.3401,-2.3404,-2.3397,-2.3399,-2.34,-2.3401,0,0,0,0,0,0,0,-2.3084,-2.3094,-2.3186,-2.3185,-2.3191,-2.3203,-2.3213,-2.324,-2.3296,-2.3262,-2.3266,-2.3276,-2.3344,-2.336,-2.3365,-2.3406,-2.3397,-2.34,-2.3402,-2.3403,-2.3452,-2.3452,0,0,0,0,0,0,-2.3074,-2.3089,-2.3183,-2.3189,-2.3142,-2.3205,-2.3217,-2.3237,-2.3296,-2.3305,-2.3275,-2.3278,-2.3355,-2.3362,-2.3368,-2.3381,-2.34,-2.3403,-2.3405,-2.3453,-2.3452,-2.3452,0,0,0,0,0,0,-2.3071,-2.3081,-2.318,-2.314,-2.3154,-2.3207,-2.3229,-2.3238,-2.3254,-2.3306,-2.3316,-2.3282,-2.3355,-2.3364,-2.3389,-2.3385,-2.3405,-2.3407,-2.3453,-2.3453,-2.3452,-2.3407,0,0,0,0,0,0,-2.3067,-2.308,-2.3085,-2.314,-2.3156,-2.32,-2.3229,-2.324,-2.326,-2.3264,-2.3315,-2.3324,-2.3356,-2.3384,-2.3392,-2.3389,-2.341,-2.3454,-2.3453,-2.3452,-2.3409,-2.3404,-2.3401,0,0,0,0,0,-2.3062,-2.3068,-2.3085,-2.3096,-2.3164,-2.32,-2.3209,-2.3248,-2.3259,-2.3264,-2.3297,-2.3322,-2.3384,-2.3386,-2.3396,-2.3393,-2.3454,-2.3453,-2.3452,-2.341,-2.3405,-2.3401,0,0,0,0,0,0,-2.3011,-2.3076,-2.3096,-2.3121,-2.3154,-2.3209,-2.3217,-2.3241,-2.3271,-2.3274,-2.3319,-2.333,-2.335,-2.3374,-2.3376,-2.3404,-2.3422,-2.3423,-2.3387,-2.3383,-2.3379,-2.3372,-2.3412,0,0,0,0,0,-2.3002,-2.3028,-2.3084,-2.31,-2.3116,-2.3163,-2.318,-2.3207,-2.3244,-2.3258,-2.3293,-2.3325,-2.3352,-2.3369,-2.3397,-2.3413,-2.3423,-2.3416,-2.3412,-2.3408,-2.3408,-2.3416,-2.3412,-2.3448,-2.3448,-2.3448,0,0,-2.2985,-2.3024,-2.3037,-2.309,-2.312,-2.3143,-2.3175,-2.3199,-2.3216,-2.3261,-2.3287,-2.3313,-2.3353,-2.3372,-2.3383,-2.3393,-2.34,-2.3407,-2.3404,-2.3405,-2.3414,-2.3411,-2.3408,-2.3448,-2.3448,-2.3448,0,0,-2.2965,-2.2999,-2.3015,-2.3044,-2.3088,-2.312,-2.3123,-2.3174,-2.3194,-2.3221,-2.3254,-2.3275,-2.332,-2.3347,-2.3366,-2.3354,-2.3378,-2.3362,-2.3341,-2.3348,-2.3345,-2.3343,-2.3337,-2.3334,-2.3362,-2.3362,-2.3362,0,-2.2938,-2.2977,-2.302,-2.3042,-2.3063,-2.3106,-2.3121,-2.3147,-2.3197,-2.321,-2.3221,-2.3279,-2.3308,-2.3334,-2.3331,-2.3346,-2.335,-2.3356,-2.3343,-2.3341,-2.3339,-2.3334,-2.3332,-2.3359,-2.336,-2.336,-2.336,0,-2.294,-2.2966,-2.2973,-2.3022,-2.3044,-2.3063,-2.3107,-2.3124,-2.3148,-2.3177,-2.3202,-2.3239,-2.3274,-2.3283,-2.3307,-2.3311,-2.3316,-2.3334,-2.3353,-2.3333,-2.3328,-2.3327,-2.3356,-2.3357,-2.3358,-2.3358,0,0,-2.2891,-2.2962,-2.2964,-2.2986,-2.3038,-2.3058,-2.3077,-2.3113,-2.3125,-2.3158,-2.3174,-2.3211,-2.3228,-2.325,-2.3277,-2.3284,-2.3269,-2.3301,-2.3303,-2.3292,-2.3274,-2.3258,-2.3256,-2.3286,-2.3286,-2.3285,-2.327,0,-2.2878,-2.2917,-2.2955,-2.2979,-2.3002,-2.3043,-2.3059,-2.3091,-2.3118,-2.3141,-2.317,-2.3195,-2.3217,-2.323,-2.3239,-2.3269,-2.3266,-2.3271,-2.3299,-2.3299,-2.3286,-2.3254,-2.3238,-2.3222,-2.3269,-2.3269,-2.3268,0,-2.2868,-2.29,-2.2926,-2.2974,-2.2985,-2.3,-2.3034,-2.3056,-2.3092,-2.3111,-2.3135,-2.3164,-2.3184,-2.3201,-2.3228,-2.323,-2.3244,-2.326,-2.326,-2.3263,-2.3281,-2.3254,-2.3218,-2.3214,-2.3266,-2.3267,-2.3267,0,-2.2827,-2.2876,-2.2898,-2.2916,-2.2973,-2.2981,-2.3005,-2.3042,-2.306,-2.309,-2.3102,-2.3133,-2.3149,-2.3172,-2.3207,-2.3217,-2.3229,-2.325,-2.3243,-2.3242,-2.3243,-2.3242,-2.3207,-2.3254,-2.3254,-2.3255,-2.3255,0,-2.2808,-2.2822,-2.2881,-2.2894,-2.291,-2.2953,-2.2968,-2.2995,-2.3027,-2.3044,-2.3081,-2.3096,-2.3143,-2.3163,-2.3191,-2.3207,-2.3215,-2.3229,-2.3236,-2.3225,-2.3223,-2.3233,-2.3234,-2.3254,-2.3254,-2.3254,-2.3254,0,-2.2765,-2.2805,-2.2831,-2.2883,-2.2896,-2.2905,-2.2948,-2.2961,-2.299,-2.3012,-2.3019,-2.3065,-2.309,-2.3128,-2.3165,-2.3183,-2.3194,-2.3207,-2.3182,-2.3186,-2.3177,-2.3176,-2.3145,-2.3142,-2.3193,-2.3193,-2.3192,0,-2.2749,-2.2761,-2.2814,-2.2828,-2.2851,-2.2875,-2.2894,-2.2936,-2.2953,-2.2995,-2.3002,-2.3031,-2.3056,-2.3094,-2.3129,-2.3156,-2.3168,-2.3156,-2.3172,-2.316,-2.3165,-2.3164,-2.3164,-2.3151,-2.315,-2.3149,-2.3149,0,-2.2716,-2.2735,-2.2762,-2.2795,-2.2816,-2.2844,-2.2873,-2.2882,-2.293,-2.2948,-2.2975,-2.2994,-2.3031,-2.3058,-2.309,-2.3113,-2.3137,-2.3144,-2.3143,-2.3131,-2.3116,-2.3122,-2.3169,-2.3144,-2.3144,-2.3145,-2.3145,-2.3145,-2.2686,-2.2697,-2.2735,-2.2763,-2.2789,-2.2815,-2.283,-2.2861,-2.2884,-2.2919,-2.2942,-2.2967,-2.3,-2.3046,-2.3067,-2.3086,-2.3097,-2.3097,-2.3096,-2.3095,-2.309,-2.3114,-2.3092,-2.3092,-2.3092,-2.3093,-2.3093,0,-2.2653,-2.2679,-2.2704,-2.2744,-2.2765,-2.2789,-2.2821,-2.2837,-2.2859,-2.2889,-2.2913,-2.2942,-2.2968,-2.3004,-2.3032,-2.304,-2.3052,-2.3046,-2.3045,-2.3049,-2.308,-2.3077,-2.3035,-2.3035,-2.3035,-2.3035,-2.3035,-2.3035,-2.2638,-2.2659,-2.2682,-2.2714,-2.2741,-2.2766,-2.2782,-2.2806,-2.283,-2.2861,-2.2883,-2.2908,-2.294,-2.297,-2.2994,-2.3004,-2.3011,-2.3001,-2.3014,-2.3042,-2.3047,-2.3052,-2.3049,-2.3003,-2.3002,-2.2981,-2.2981,-2.298]}]]